| time (UTC) | temp C | wind direction | speed KPH | gust KPH | rain 1hr cm | rain 24hr cm | rain mn cm | humidity % | barometer mb |
| 20260902100106 | 31 | 288 | 0.0 | 4.8 | 0.00 | 0.00 | 0.00 | 40 | 1022.5 |
| 20260902095550 | 31 | 313 | 0.0 | 6.4 | 0.00 | 0.00 | 0.00 | 40 | 1022.6 |
| 20260902095046 | 31 | 263 | 0.0 | 6.4 | 0.00 | 0.00 | 0.00 | 40 | 1022.6 |
| 20260902094542 | 30 | 158 | 0.0 | 6.4 | 0.00 | 0.00 | 0.00 | 43 | 1022.6 |
| 20260902094033 | 30 | 184 | 0.0 | 6.4 | 0.00 | 0.00 | 0.00 | 44 | 1022.6 |
| 20260902092515 | 30 | 117 | 1.6 | 8.0 | 0.00 | 0.00 | 0.00 | 45 | 1022.8 |
| 20260902092010 | 30 | 257 | 1.6 | 9.7 | 0.00 | 0.00 | 0.00 | 46 | 1022.9 |
| 20260902091504 | 30 | 285 | 0.0 | 8.0 | 0.00 | 0.00 | 0.00 | 46 | 1022.7 |
| 20260902090453 | 29 | 284 | 0.0 | 4.8 | 0.00 | 0.00 | 0.00 | 47 | 1022.7 |
| 20260902085945 | 29 | 132 | 0.0 | 4.8 | 0.00 | 0.00 | 0.00 | 48 | 1022.7 |
| 20260902084935 | 28 | 110 | 0.0 | 1.6 | 0.00 | 0.00 | 0.00 | 54 | 1022.7 |
| 20260902084428 | 28 | 103 | 0.0 | 1.6 | 0.00 | 0.00 | 0.00 | 54 | 1022.7 |
| 20260902083922 | 28 | 103 | 0.0 | 1.6 | 0.00 | 0.00 | 0.00 | 57 | 1022.6 |
| 20260902083415 | 28 | 103 | 0.0 | 1.6 | 0.00 | 0.00 | 0.00 | 58 | 1022.7 |
| 20260902082915 | 28 | 103 | 0.0 | 1.6 | 0.00 | 0.00 | 0.00 | 58 | 1022.5 |
| 20260902082415 | 27 | 103 | 0.0 | 1.6 | 0.00 | 0.00 | 0.00 | 59 | 1022.6 |
| 20260902081913 | 27 | 103 | 0.0 | 1.6 | 0.00 | 0.00 | 0.00 | 60 | 1022.6 |
| 20260902081413 | 27 | 103 | 0.0 | 1.6 | 0.00 | 0.00 | 0.00 | 60 | 1022.6 |
| 20260902080910 | 26 | 103 | 0.0 | 1.6 | 0.00 | 0.00 | 0.00 | 60 | 1022.6 |
| 20260902080406 | 26 | 103 | 0.0 | 1.6 | 0.00 | 0.00 | 0.00 | 62 | 1022.6 |
| 20260902075906 | 26 | 102 | 0.0 | 1.6 | 0.00 | 0.00 | 0.00 | 62 | 1022.6 |
| 20260902075403 | 26 | 102 | 0.0 | 3.2 | 0.00 | 0.00 | 0.00 | 62 | 1022.6 |
| 20260902074903 | 25 | 103 | 0.0 | 3.2 | 0.00 | 0.00 | 0.00 | 63 | 1022.5 |
| 20260902073401 | 25 | 102 | 0.0 | 8.0 | 0.00 | 0.00 | 0.00 | 64 | 1022.4 |
| 20260902072857 | 24 | 103 | 0.0 | 8.0 | 0.00 | 0.00 | 0.00 | 64 | 1022.4 |
| 20260902072355 | 24 | 99 | 0.0 | 4.8 | 0.00 | 0.00 | 0.00 | 66 | 1022.4 |
| 20260902071352 | 23 | 99 | 0.0 | 6.4 | 0.00 | 0.00 | 0.00 | 67 | 1022.5 |
| 20260902070849 | 23 | 96 | 0.0 | 6.4 | 0.00 | 0.00 | 0.00 | 70 | 1022.6 |
| 20260902065345 | 22 | 217 | 0.0 | 1.6 | 0.00 | 0.00 | 0.00 | 76 | 1022.6 |
| 20260902064847 | 22 | 267 | 0.0 | 0.0 | 0.00 | 0.00 | 0.00 | 77 | 1022.5 |
| 20260902064340 | 21 | 269 | 0.0 | 0.0 | 0.00 | 0.00 | 0.00 | 80 | 1022.5 |
| 20260902063834 | 20 | 269 | 0.0 | 0.0 | 0.00 | 0.00 | 0.00 | 82 | 1022.4 |
| 20260902063335 | 20 | 269 | 0.0 | 0.0 | 0.00 | 0.00 | 0.00 | 83 | 1022.5 |
| 20260902062834 | 20 | 269 | 0.0 | 0.0 | 0.00 | 0.00 | 0.00 | 84 | 1022.5 |
| 20260902062336 | 19 | 269 | 0.0 | 0.0 | 0.00 | 0.00 | 0.00 | 84 | 1022.5 |
| 20260902061836 | 19 | 269 | 0.0 | 0.0 | 0.00 | 0.00 | 0.00 | 85 | 1022.5 |
| 20260902061334 | 18 | 269 | 0.0 | 0.0 | 0.00 | 0.00 | 0.00 | 86 | 1022.5 |
| 20260902060830 | 18 | 269 | 0.0 | 0.0 | 0.00 | 0.00 | 0.00 | 86 | 1022.4 |
| 20260902060330 | 18 | 269 | 0.0 | 0.0 | 0.00 | 0.00 | 0.00 | 86 | 1022.4 |
| 20260902055829 | 18 | 269 | 0.0 | 0.0 | 0.00 | 0.00 | 0.00 | 86 | 1022.3 |
| 20260902055328 | 18 | 269 | 0.0 | 1.6 | 0.00 | 0.00 | 0.00 | 86 | 1022.3 |
| 20260902054827 | 18 | 269 | 0.0 | 3.2 | 0.00 | 0.00 | 0.00 | 85 | 1022.3 |
| 20260902054328 | 18 | 269 | 0.0 | 3.2 | 0.00 | 0.00 | 0.00 | 85 | 1022.4 |
| 20260902053826 | 18 | 267 | 0.0 | 0.0 | 0.00 | 0.00 | 0.00 | 85 | 1022.4 |
| 20260902053342 | 18 | 267 | 0.0 | 0.0 | 0.00 | 0.00 | 0.00 | 86 | 1022.2 |
| 20260902052327 | 17 | 267 | 0.0 | 0.0 | 0.00 | 0.00 | 0.00 | 87 | 1022.1 |
| 20260902051827 | 17 | 267 | 0.0 | 0.0 | 0.00 | 0.00 | 0.00 | 88 | 1022.1 |
| 20260902051326 | 17 | 267 | 0.0 | 0.0 | 0.00 | 0.00 | 0.00 | 88 | 1022.0 |
| 20260902050825 | 17 | 267 | 0.0 | 0.0 | 0.00 | 0.00 | 0.00 | 87 | 1022.0 |
| 20260902050324 | 17 | 267 | 0.0 | 0.0 | 0.00 | 0.00 | 0.00 | 87 | 1022.0 |
| 20260902045824 | 17 | 267 | 0.0 | 0.0 | 0.00 | 0.00 | 0.00 | 87 | 1022.0 |
| 20260902043826 | 17 | 263 | 0.0 | 0.0 | 0.00 | 0.00 | 0.00 | 87 | 1022.0 |
| 20260902042320 | 17 | 263 | 0.0 | 0.0 | 0.00 | 0.00 | 0.00 | 86 | 1022.0 |
| 20260902041822 | 17 | 263 | 0.0 | 0.0 | 0.00 | 0.00 | 0.00 | 86 | 1021.9 |
| 20260902041320 | 17 | 269 | 0.0 | 0.0 | 0.00 | 0.00 | 0.00 | 86 | 1021.9 |
| 20260902040821 | 17 | 269 | 0.0 | 0.0 | 0.00 | 0.00 | 0.00 | 86 | 1021.9 |
| 20260902040320 | 17 | 269 | 0.0 | 1.6 | 0.00 | 0.00 | 0.00 | 86 | 1021.8 |
| 20260902035820 | 17 | 269 | 0.0 | 1.6 | 0.00 | 0.00 | 0.00 | 86 | 1021.9 |
| 20260902035321 | 17 | 269 | 0.0 | 4.8 | 0.00 | 0.00 | 0.00 | 85 | 1021.8 |
| 20260902034822 | 18 | 269 | 0.0 | 4.8 | 0.00 | 0.00 | 0.00 | 85 | 1021.8 |
| 20260902034319 | 18 | 266 | 0.0 | 0.0 | 0.00 | 0.00 | 0.00 | 85 | 1021.9 |
| 20260902033817 | 18 | 266 | 0.0 | 0.0 | 0.00 | 0.00 | 0.00 | 85 | 1021.8 |
| 20260902033317 | 18 | 266 | 0.0 | 0.0 | 0.00 | 0.00 | 0.00 | 85 | 1021.8 |
| 20260902032817 | 18 | 266 | 0.0 | 0.0 | 0.00 | 0.00 | 0.00 | 85 | 1021.9 |
| 20260902032316 | 18 | 266 | 0.0 | 0.0 | 0.00 | 0.00 | 0.00 | 85 | 1021.9 |
| 20260902031815 | 18 | 266 | 0.0 | 0.0 | 0.00 | 0.00 | 0.00 | 84 | 1022.0 |
| 20260902031328 | 18 | 268 | 0.0 | 0.0 | 0.00 | 0.00 | 0.00 | 84 | 1022.1 |
| 20260902030817 | 18 | 268 | 0.0 | 0.0 | 0.00 | 0.00 | 0.00 | 85 | 1022.0 |
| 20260902030317 | 18 | 268 | 0.0 | 1.6 | 0.00 | 0.00 | 0.00 | 84 | 1022.0 |
| 20260902025808 | 18 | 268 | 0.0 | 1.6 | 0.00 | 0.00 | 0.00 | 84 | 1022.0 |
| 20260902025306 | 18 | 266 | 0.0 | 0.0 | 0.00 | 0.00 | 0.00 | 85 | 1022.0 |
| 20260902024756 | 18 | 266 | 0.0 | 0.0 | 0.00 | 0.00 | 0.00 | 85 | 1022.0 |
| 20260902024250 | 18 | 266 | 0.0 | 0.0 | 0.00 | 0.00 | 0.00 | 85 | 1022.0 |
| 20260902023745 | 18 | 273 | 0.0 | 4.8 | 0.00 | 0.00 | 0.00 | 84 | 1022.0 |
| 20260902023238 | 18 | 276 | 0.0 | 6.4 | 0.00 | 0.00 | 0.00 | 84 | 1022.0 |
| 20260902022227 | 18 | 274 | 0.0 | 3.2 | 0.00 | 0.00 | 0.00 | 84 | 1022.0 |
| 20260902021721 | 18 | 275 | 0.0 | 3.2 | 0.00 | 0.00 | 0.00 | 84 | 1022.0 |
| 20260902021227 | 18 | 272 | 0.0 | 1.6 | 0.00 | 0.00 | 0.00 | 83 | 1021.9 |
| 20260902020707 | 18 | 272 | 0.0 | 0.0 | 0.00 | 0.00 | 0.00 | 83 | 1021.9 |
| 20260902020203 | 19 | 272 | 0.0 | 0.0 | 0.00 | 0.00 | 0.00 | 83 | 1021.9 |
| 20260902015657 | 19 | 272 | 0.0 | 0.0 | 0.00 | 0.00 | 0.00 | 83 | 1021.9 |
| 20260902015151 | 19 | 273 | 0.0 | 4.8 | 0.00 | 0.00 | 0.00 | 83 | 1022.0 |
| 20260902014648 | 19 | 273 | 0.0 | 4.8 | 0.00 | 0.00 | 0.00 | 83 | 1022.0 |
| 20260902014146 | 19 | 275 | 0.0 | 3.2 | 0.00 | 0.00 | 0.00 | 82 | 1021.9 |
| 20260902013645 | 19 | 278 | 0.0 | 4.8 | 0.00 | 0.00 | 0.00 | 82 | 1022.0 |
| 20260902013142 | 19 | 274 | 0.0 | 4.8 | 0.00 | 0.00 | 0.00 | 81 | 1022.0 |
| 20260902012642 | 20 | 273 | 0.0 | 4.8 | 0.00 | 0.00 | 0.00 | 81 | 1022.1 |
| 20260902012144 | 20 | 265 | 0.0 | 1.6 | 0.00 | 0.00 | 0.00 | 81 | 1021.9 |
| 20260902011642 | 20 | 264 | 0.0 | 0.0 | 0.00 | 0.00 | 0.00 | 81 | 1021.9 |
| 20260902011145 | 20 | 264 | 0.0 | 3.2 | 0.00 | 0.00 | 0.00 | 81 | 1021.9 |
| 20260902010655 | 20 | 264 | 0.0 | 3.2 | 0.00 | 0.00 | 0.00 | 80 | 1022.0 |
| 20260902010153 | 20 | 271 | 0.0 | 1.6 | 0.00 | 0.00 | 0.00 | 80 | 1022.1 |
| 20260902005638 | 20 | 271 | 0.0 | 1.6 | 0.00 | 0.00 | 0.00 | 80 | 1022.0 |
| 20260902005138 | 20 | 271 | 0.0 | 0.0 | 0.00 | 0.00 | 0.00 | 80 | 1022.1 |
| 20260902004634 | 20 | 271 | 0.0 | 4.8 | 0.00 | 0.00 | 0.00 | 80 | 1022.0 |
| 20260902004133 | 20 | 271 | 0.0 | 4.8 | 0.00 | 0.00 | 0.00 | 80 | 1022.0 |
| 20260902003633 | 20 | 266 | 0.0 | 0.0 | 0.00 | 0.00 | 0.00 | 80 | 1022.0 |
| 20260902003130 | 20 | 266 | 0.0 | 0.0 | 0.00 | 0.00 | 0.00 | 79 | 1022.1 |
| 20260902002628 | 20 | 266 | 0.0 | 4.8 | 0.00 | 0.00 | 0.00 | 79 | 1022.0 |
| 20260902002128 | 20 | 266 | 0.0 | 4.8 | 0.00 | 0.00 | 0.00 | 79 | 1022.0 |
| 20260902001126 | 20 | 263 | 0.0 | 0.0 | 0.00 | 0.00 | 0.00 | 79 | 1022.1 |
| 20260902000625 | 20 | 264 | 0.0 | 1.6 | 0.00 | 0.00 | 0.00 | 78 | 1022.2 |
| 20260902000122 | 20 | 269 | 0.0 | 4.8 | 0.00 | 0.00 | 0.00 | 78 | 1022.2 |
| 20260901235621 | 20 | 271 | 0.0 | 4.8 | 0.00 | 0.00 | 0.00 | 78 | 1022.2 |
| 20260901235121 | 20 | 270 | 0.0 | 6.4 | 0.00 | 0.00 | 0.00 | 78 | 1022.3 |
| 20260901234619 | 20 | 262 | 0.0 | 6.4 | 0.00 | 0.00 | 0.00 | 78 | 1022.2 |
| 20260901234119 | 21 | 274 | 0.0 | 1.6 | 0.00 | 0.00 | 0.00 | 78 | 1022.2 |
| 20260901233618 | 21 | 272 | 0.0 | 0.0 | 0.00 | 0.00 | 0.00 | 78 | 1022.2 |
| 20260901233118 | 21 | 273 | 0.0 | 1.6 | 0.00 | 0.00 | 0.00 | 78 | 1022.2 |
| 20260901232617 | 21 | 272 | 0.0 | 3.2 | 0.00 | 0.00 | 0.00 | 77 | 1022.2 |
| 20260901232117 | 21 | 272 | 0.0 | 3.2 | 0.00 | 0.00 | 0.00 | 77 | 1022.3 |
| 20260901231115 | 21 | 271 | 0.0 | 0.0 | 0.00 | 0.00 | 0.00 | 76 | 1022.4 |
| 20260901230615 | 21 | 272 | 0.0 | 8.0 | 0.00 | 0.00 | 0.00 | 75 | 1022.3 |
| 20260901230130 | 21 | 272 | 0.0 | 8.0 | 0.00 | 0.00 | 0.00 | 75 | 1022.3 |
| 20260901225613 | 21 | 274 | 0.0 | 1.6 | 0.00 | 0.00 | 0.00 | 74 | 1022.4 |
| 20260901225112 | 21 | 278 | 0.0 | 4.8 | 0.00 | 0.00 | 0.00 | 74 | 1022.5 |
| 20260901224610 | 22 | 268 | 0.0 | 4.8 | 0.00 | 0.00 | 0.00 | 74 | 1022.5 |
| 20260901223607 | 22 | 282 | 0.0 | 8.0 | 0.00 | 0.00 | 0.00 | 73 | 1022.3 |
| 20260901223101 | 22 | 271 | 0.0 | 3.2 | 0.00 | 0.00 | 0.00 | 74 | 1022.4 |
| 20260901222556 | 22 | 274 | 0.0 | 3.2 | 0.00 | 0.00 | 0.00 | 74 | 1022.3 |
| 20260901222052 | 22 | 274 | 0.0 | 6.4 | 0.00 | 0.00 | 0.00 | 73 | 1022.3 |
| 20260901221542 | 22 | 274 | 0.0 | 6.4 | 0.00 | 0.00 | 0.00 | 73 | 1022.4 |
| 20260901220531 | 22 | 272 | 0.0 | 4.8 | 0.00 | 0.00 | 0.00 | 72 | 1022.4 |
| 20260901215013 | 22 | 271 | 0.0 | 3.2 | 0.00 | 0.00 | 0.00 | 72 | 1022.2 |
| 20260901213455 | 22 | 274 | 0.0 | 3.2 | 0.00 | 0.00 | 0.00 | 70 | 1022.0 |
| 20260901212949 | 22 | 275 | 0.0 | 0.0 | 0.00 | 0.00 | 0.00 | 70 | 1022.0 |
| 20260901212445 | 22 | 276 | 0.0 | 0.0 | 0.00 | 0.00 | 0.00 | 70 | 1022.0 |
| 20260901211937 | 22 | 275 | 0.0 | 6.4 | 0.00 | 0.00 | 0.00 | 69 | 1021.9 |
| 20260901211433 | 22 | 278 | 0.0 | 6.4 | 0.00 | 0.00 | 0.00 | 68 | 1021.9 |
| 20260901210928 | 22 | 275 | 0.0 | 4.8 | 0.00 | 0.00 | 0.00 | 67 | 1021.9 |
| 20260901210427 | 22 | 268 | 0.0 | 0.0 | 0.00 | 0.00 | 0.00 | 67 | 1021.8 |
| 20260901205930 | 22 | 268 | 0.0 | 0.0 | 0.00 | 0.00 | 0.00 | 67 | 1021.8 |
| 20260901205428 | 22 | 268 | 0.0 | 0.0 | 0.00 | 0.00 | 0.00 | 67 | 1021.7 |
| 20260901204929 | 22 | 268 | 0.0 | 0.0 | 0.00 | 0.00 | 0.00 | 67 | 1021.7 |
| 20260901204427 | 22 | 268 | 0.0 | 3.2 | 0.00 | 0.00 | 0.00 | 66 | 1021.7 |
| 20260901203425 | 22 | 266 | 0.0 | 4.8 | 0.00 | 0.00 | 0.00 | 65 | 1021.7 |
| 20260901202927 | 22 | 272 | 0.0 | 4.8 | 0.00 | 0.00 | 0.00 | 64 | 1021.7 |
| 20260901202426 | 23 | 276 | 0.0 | 3.2 | 0.00 | 0.00 | 0.00 | 63 | 1021.6 |
| 20260901201927 | 23 | 269 | 0.0 | 1.6 | 0.00 | 0.00 | 0.00 | 62 | 1021.7 |
| 20260901201426 | 23 | 269 | 0.0 | 1.6 | 0.00 | 0.00 | 0.00 | 62 | 1021.7 |
| 20260901200928 | 23 | 269 | 0.0 | 1.6 | 0.00 | 0.00 | 0.00 | 62 | 1021.6 |
| 20260901200427 | 23 | 268 | 0.0 | 1.6 | 0.00 | 0.00 | 0.00 | 62 | 1021.6 |
| 20260901195426 | 23 | 275 | 0.0 | 6.4 | 0.00 | 0.00 | 0.00 | 60 | 1021.5 |
| 20260901194928 | 24 | 268 | 0.0 | 1.6 | 0.00 | 0.00 | 0.00 | 59 | 1021.5 |
| 20260901194420 | 24 | 267 | 0.0 | 1.6 | 0.00 | 0.00 | 0.00 | 58 | 1021.5 |
| 20260901193913 | 25 | 268 | 0.0 | 0.0 | 0.00 | 0.00 | 0.00 | 57 | 1021.5 |
| 20260901193407 | 25 | 267 | 0.0 | 0.0 | 0.00 | 0.00 | 0.00 | 56 | 1021.4 |
| 20260901192903 | 25 | 267 | 0.0 | 0.0 | 0.00 | 0.00 | 0.00 | 55 | 1021.3 |
| 20260901192352 | 25 | 267 | 0.0 | 1.6 | 0.00 | 0.00 | 0.00 | 54 | 1021.3 |
| 20260901191848 | 25 | 267 | 0.0 | 1.6 | 0.00 | 0.00 | 0.00 | 53 | 1021.2 |
| 20260901191341 | 25 | 269 | 0.0 | 0.0 | 0.00 | 0.00 | 0.00 | 52 | 1021.3 |
| 20260901190838 | 25 | 271 | 0.0 | 0.0 | 0.00 | 0.00 | 0.00 | 52 | 1021.2 |
| 20260901190330 | 26 | 274 | 0.0 | 0.0 | 0.00 | 0.00 | 0.00 | 51 | 1021.1 |
| 20260901185320 | 26 | 276 | 0.0 | 0.0 | 0.00 | 0.00 | 0.00 | 49 | 1021.0 |
| 20260901184814 | 26 | 277 | 0.0 | 0.0 | 0.00 | 0.00 | 0.00 | 48 | 1021.0 |
| 20260901184306 | 27 | 278 | 0.0 | 0.0 | 0.00 | 0.00 | 0.00 | 48 | 1021.0 |
| 20260901183800 | 27 | 278 | 0.0 | 0.0 | 0.00 | 0.00 | 0.00 | 48 | 1020.9 |
| 20260901183254 | 27 | 278 | 0.0 | 0.0 | 0.00 | 0.00 | 0.00 | 47 | 1020.9 |
| 20260901182747 | 27 | 278 | 0.0 | 0.0 | 0.00 | 0.00 | 0.00 | 46 | 1020.8 |
| 20260901182241 | 28 | 280 | 0.0 | 0.0 | 0.00 | 0.00 | 0.00 | 45 | 1020.7 |
| 20260901181736 | 28 | 280 | 0.0 | 0.0 | 0.00 | 0.00 | 0.00 | 45 | 1020.7 |
| 20260901181230 | 28 | 280 | 0.0 | 0.0 | 0.00 | 0.00 | 0.00 | 44 | 1020.6 |
| 20260901180725 | 28 | 280 | 0.0 | 0.0 | 0.00 | 0.00 | 0.00 | 44 | 1020.6 |
| 20260901180217 | 29 | 280 | 0.0 | 0.0 | 0.00 | 0.00 | 0.00 | 44 | 1020.4 |
| 20260901175713 | 29 | 280 | 0.0 | 0.0 | 0.00 | 0.00 | 0.00 | 43 | 1020.4 |
| 20260901175205 | 30 | 280 | 0.0 | 0.0 | 0.00 | 0.00 | 0.00 | 42 | 1020.3 |
| 20260901174701 | 30 | 279 | 0.0 | 0.0 | 0.00 | 0.00 | 0.00 | 41 | 1020.3 |
| 20260901174159 | 30 | 279 | 0.0 | 0.0 | 0.00 | 0.00 | 0.00 | 39 | 1020.2 |
| 20260901173659 | 31 | 279 | 0.0 | 0.0 | 0.00 | 0.00 | 0.00 | 38 | 1020.2 |
| 20260901173157 | 31 | 279 | 0.0 | 1.6 | 0.00 | 0.00 | 0.00 | 38 | 1020.2 |
| 20260901172155 | 31 | 278 | 0.0 | 3.2 | 0.00 | 0.00 | 0.00 | 37 | 1020.2 |
| 20260901171656 | 32 | 273 | 0.0 | 4.8 | 0.00 | 0.00 | 0.00 | 37 | 1020.0 |
| 20260901171154 | 32 | 295 | 0.0 | 4.8 | 0.00 | 0.00 | 0.00 | 38 | 1020.0 |
| 20260901170152 | 32 | 272 | 0.0 | 3.2 | 0.00 | 0.00 | 0.00 | 37 | 1019.9 |
| 20260901165653 | 32 | 280 | 0.0 | 6.4 | 0.00 | 0.00 | 0.00 | 37 | 1020.0 |
| 20260901165149 | 33 | 264 | 0.0 | 9.7 | 0.00 | 0.00 | 0.00 | 36 | 1020.0 |
| 20260901164647 | 33 | 281 | 1.6 | 9.7 | 0.00 | 0.00 | 0.00 | 37 | 1020.0 |
| 20260901163649 | 33 | 305 | 1.6 | 11.3 | 0.00 | 0.00 | 0.00 | 36 | 1020.0 |
| 20260901163147 | 33 | 268 | 0.0 | 8.0 | 0.00 | 0.00 | 0.00 | 36 | 1020.2 |
| 20260901162647 | 33 | 288 | 0.0 | 9.7 | 0.00 | 0.00 | 0.00 | 35 | 1020.0 |
| 20260901162149 | 33 | 269 | 1.6 | 12.9 | 0.00 | 0.00 | 0.00 | 35 | 1020.0 |
| 20260901161647 | 33 | 271 | 3.2 | 16.1 | 0.00 | 0.00 | 0.00 | 34 | 1020.0 |
| 20260901160641 | 33 | 281 | 3.2 | 16.1 | 0.00 | 0.00 | 0.00 | 34 | 1020.0 |
| 20260901155642 | 34 | 280 | 1.6 | 12.9 | 0.00 | 0.00 | 0.00 | 33 | 1020.0 |
| 20260901155141 | 34 | 284 | 1.6 | 12.9 | 0.00 | 0.00 | 0.00 | 31 | 1020.0 |
| 20260901153637 | 34 | 278 | 3.2 | 19.3 | 0.00 | 0.00 | 0.00 | 31 | 1019.9 |
| 20260901153137 | 34 | 341 | 3.2 | 19.3 | 0.00 | 0.00 | 0.00 | 31 | 1019.9 |
| 20260901152650 | 34 | 274 | 1.6 | 12.9 | 0.00 | 0.00 | 0.00 | 31 | 1019.9 |
| 20260901152137 | 34 | 335 | 1.6 | 8.0 | 0.00 | 0.00 | 0.00 | 32 | 1019.8 |
| 20260901151637 | 34 | 13 | 1.6 | 12.9 | 0.00 | 0.00 | 0.00 | 33 | 1019.8 |
| 20260901151137 | 34 | 281 | 1.6 | 12.9 | 0.00 | 0.00 | 0.00 | 33 | 1019.8 |
| 20260901150637 | 34 | 299 | 1.6 | 11.3 | 0.00 | 0.00 | 0.00 | 31 | 1019.8 |
| 20260901150138 | 34 | 274 | 1.6 | 14.5 | 0.00 | 0.00 | 0.00 | 32 | 1019.9 |
| 20260901145638 | 34 | 295 | 3.2 | 14.5 | 0.00 | 0.00 | 0.00 | 32 | 1019.8 |
| 20260901145137 | 34 | 0 | 3.2 | 14.5 | 0.00 | 0.00 | 0.00 | 33 | 1019.8 |
| 20260901144631 | 34 | 278 | 1.6 | 14.5 | 0.00 | 0.00 | 0.00 | 33 | 1019.8 |
| 20260901144132 | 34 | 263 | 1.6 | 14.5 | 0.00 | 0.00 | 0.00 | 33 | 1019.9 |
| 20260901143631 | 34 | 277 | 4.8 | 14.5 | 0.00 | 0.00 | 0.00 | 34 | 1019.8 |
| 20260901143130 | 34 | 293 | 3.2 | 14.5 | 0.00 | 0.00 | 0.00 | 34 | 1019.9 |
| 20260901142633 | 35 | 266 | 1.6 | 14.5 | 0.00 | 0.00 | 0.00 | 33 | 1020.0 |
| 20260901142145 | 34 | 231 | 3.2 | 16.1 | 0.00 | 0.00 | 0.00 | 33 | 1019.9 |
| 20260901141631 | 34 | 276 | 3.2 | 16.1 | 0.00 | 0.00 | 0.00 | 33 | 1020.0 |
| 20260901141131 | 34 | 316 | 1.6 | 14.5 | 0.00 | 0.00 | 0.00 | 33 | 1019.9 |
| 20260901140631 | 34 | 262 | 3.2 | 12.9 | 0.00 | 0.00 | 0.00 | 32 | 1020.0 |
| 20260901140132 | 34 | 276 | 3.2 | 14.5 | 0.00 | 0.00 | 0.00 | 32 | 1020.0 |
| 20260901135629 | 34 | 290 | 4.8 | 14.5 | 0.00 | 0.00 | 0.00 | 32 | 1019.9 |
| 20260901135127 | 34 | 302 | 4.8 | 16.1 | 0.00 | 0.00 | 0.00 | 33 | 1020.0 |
| 20260901134629 | 34 | 267 | 4.8 | 16.1 | 0.00 | 0.00 | 0.00 | 33 | 1019.9 |
| 20260901134127 | 35 | 248 | 3.2 | 17.7 | 0.00 | 0.00 | 0.00 | 33 | 1020.0 |
| 20260901133629 | 35 | 217 | 3.2 | 17.7 | 0.00 | 0.00 | 0.00 | 32 | 1020.0 |
| 20260901133127 | 35 | 283 | 3.2 | 14.5 | 0.00 | 0.00 | 0.00 | 33 | 1020.0 |
| 20260901132627 | 35 | 290 | 1.6 | 14.5 | 0.00 | 0.00 | 0.00 | 34 | 1020.0 |
| 20260901131630 | 35 | 255 | 0.0 | 4.8 | 0.00 | 0.00 | 0.00 | 36 | 1020.3 |
| 20260901131125 | 34 | 341 | 1.6 | 11.3 | 0.00 | 0.00 | 0.00 | 36 | 1020.3 |
| 20260901130625 | 34 | 267 | 1.6 | 11.3 | 0.00 | 0.00 | 0.00 | 35 | 1020.3 |
| 20260901130125 | 34 | 176 | 1.6 | 9.7 | 0.00 | 0.00 | 0.00 | 35 | 1020.4 |
| 20260901125124 | 33 | 274 | 4.8 | 17.7 | 0.00 | 0.00 | 0.00 | 37 | 1020.5 |
| 20260901124624 | 33 | 279 | 3.2 | 17.7 | 0.00 | 0.00 | 0.00 | 36 | 1020.5 |
| 20260901124125 | 33 | 283 | 0.0 | 6.4 | 0.00 | 0.00 | 0.00 | 39 | 1020.6 |
| 20260901123624 | 33 | 269 | 0.0 | 9.7 | 0.00 | 0.00 | 0.00 | 42 | 1020.6 |
| 20260901123124 | 33 | 84 | 1.6 | 11.3 | 0.00 | 0.00 | 0.00 | 41 | 1020.6 |
| 20260901122620 | 33 | 295 | 1.6 | 12.9 | 0.00 | 0.00 | 0.00 | 40 | 1020.6 |
| 20260901122121 | 33 | 230 | 1.6 | 12.9 | 0.00 | 0.00 | 0.00 | 40 | 1020.7 |
| 20260901121119 | 33 | 335 | 0.0 | 9.7 | 0.00 | 0.00 | 0.00 | 42 | 1020.8 |
| 20260901120619 | 33 | 308 | 0.0 | 8.0 | 0.00 | 0.00 | 0.00 | 44 | 1020.7 |
| 20260901120122 | 33 | 334 | 1.6 | 9.7 | 0.00 | 0.00 | 0.00 | 43 | 1020.8 |
| 20260901115615 | 33 | 243 | 1.6 | 9.7 | 0.00 | 0.00 | 0.00 | 44 | 1020.8 |
| 20260901115116 | 33 | 248 | 0.0 | 6.4 | 0.00 | 0.00 | 0.00 | 45 | 1020.7 |
| 20260901114614 | 33 | 284 | 0.0 | 6.4 | 0.00 | 0.00 | 0.00 | 44 | 1020.9 |
| 20260901114113 | 32 | 298 | 0.0 | 8.0 | 0.00 | 0.00 | 0.00 | 45 | 1020.9 |
| 20260901113113 | 32 | 285 | 0.0 | 8.0 | 0.00 | 0.00 | 0.00 | 46 | 1021.0 |
| 20260901112613 | 32 | 251 | 0.0 | 8.0 | 0.00 | 0.00 | 0.00 | 47 | 1021.0 |
| 20260901112115 | 32 | 280 | 0.0 | 8.0 | 0.00 | 0.00 | 0.00 | 47 | 1021.0 |
| 20260901111114 | 32 | 240 | 0.0 | 4.8 | 0.00 | 0.00 | 0.00 | 50 | 1021.1 |
| 20260901110612 | 32 | 218 | 0.0 | 4.8 | 0.00 | 0.00 | 0.00 | 50 | 1021.1 |
| 20260901110106 | 32 | 161 | 0.0 | 4.8 | 0.00 | 0.00 | 0.00 | 52 | 1021.2 |
| 20260901105558 | 32 | 268 | 0.0 | 8.0 | 0.00 | 0.00 | 0.00 | 52 | 1021.2 |
| 20260901105052 | 32 | 256 | 0.0 | 8.0 | 0.00 | 0.00 | 0.00 | 50 | 1021.2 |
| 20260901104546 | 31 | 295 | 0.0 | 8.0 | 0.00 | 0.00 | 0.00 | 48 | 1021.2 |
| 20260901103537 | 31 | 223 | 0.0 | 8.0 | 0.00 | 0.00 | 0.00 | 48 | 1021.3 |
| 20260901102535 | 31 | 349 | 0.0 | 6.4 | 0.00 | 0.00 | 0.00 | 48 | 1021.5 |
| 20260901102017 | 31 | 306 | 0.0 | 8.0 | 0.00 | 0.00 | 0.00 | 51 | 1021.5 |
| 20260901101510 | 31 | 266 | 0.0 | 8.0 | 0.00 | 0.00 | 0.00 | 52 | 1021.5 |
| 20260901101005 | 31 | 254 | 0.0 | 4.8 | 0.00 | 0.00 | 0.00 | 50 | 1021.6 |
| 20260901100500 | 30 | 322 | 0.0 | 4.8 | 0.00 | 0.00 | 0.00 | 52 | 1021.7 |